SITRO-AIS 8 (ANOKHIN)

Last updated on Mon Sep 21 2026 00:03:45 GMT+0000 (Coordinated Universal Time)

1 57193U 23091AD 26263.56372317 .00009594 00000+0 28975-3 0 9993 2 57193 97.4963 330.4568 0011043 117.7229 242.5135 15.34411393179061
UTC large
Height (km)
Speed (km/s)
/
Latitude / Longitude
Inclination (degrees)
Orbital Period (minutes)
Azimuth
Elevation
Range (km)
Doppler Factor

Next 0 passes for location: London (51.5072 / 0.1276)

No passes found over London.
SITRO-AIS 8 (ANOKHIN)